カタログに戻る

STARLINK-3339

運用中通信VLEO
NORAD 50820·PAYLOAD·🇺🇸 United States

打ち上げ Jan 6, 2022 から Cape Canaveral Space Force Station

Loading…

次のパス (今後24時間)

TLE

最新Source: CelesTrak SupGP

元期: Sep 15, 2026, 01:47 UTC

1 50820C 22001T   26258.07479167 -.00023911  00000+0 -76896-3 0  2588
2 50820  53.1593  29.1555 0001104  86.8289 354.3948 15.31711714    15

AllMySatでSTARLINK-3339をリアルタイム追跡

Download on the App Store